Location: Carrières
(48.9495°N, 2.0407°E)
Time: 19:30:38
(UTC+00:00)

Altair - Pass Details

Date: 30 April 2024
Orbit: 1502 x 1682 km, 47.2° (Epoch: 21 May)

Event Time Altitude Azimuth Distance (km) Brightness Sun altitude
Rises 00:00:22 0° 288° (WNW) 4,850 10.3 -26.1°
Reaches altitude 10° 00:05:01 10° 269° (W) 3,825 9.5 -26.1°
Enters shadow 00:09:19 16° 243° (WSW) 3,307 8.9 -26.0°
